Terminal Aerodrome Forecast
Issued by NWS Rapid City, SD

Home | Current Version | Previous Version | Text Only | Print | Product List | Glossary Off
Versions: 1 2 3 4 5 6 7 8 9 10 11 12 13 14 15 16 17 18 19 20 21 22 23 24 25

589
FTUS43 KUNR 211720
TAFRAP
TAF
KRAP 211720Z 2118/2218 16024G34KT P6SM BKN020 BKN250
     FM220300 16011KT 5SM BR OVC010
     FM221300 20007KT P6SM BKN020=

USA.gov is the U.S. government's official web portal to all federal, state and local government web resources and services.